Weather History for Riga, Latvia

Change the Weather History Date:

Thursday, February 14, 2013

  Actual Average Record
Temperature  
Mean Temperature 33 °F -  
Max Temperature 34 °F 34 °F 42 °F (2000)
Min Temperature 32 °F 21 °F -11 °F (2011)
Degree Days  
Heating Degree Days 32    
Moisture  
Dew Point 32 °F    
Average Humidity 94    
Maximum Humidity 100    
Minimum Humidity 85    
Precipitation  
Precipitation 0.00 in 0.04 in - ()
Sea Level Pressure  
Sea Level Pressure 30.42 in    
Wind  
Wind Speed 5 mph ()    
Max Wind Speed 7 mph    
Max Gust Speed -    
Visibility 6.1 miles    
Events Rain    
Averages and records for this station are not official NWS values.
T = Trace of Precipitation, MM = Missing Value Source: Averaged Metar Reports

Daily Weather History Graph

Daily Weather History Graph

Search for Another Location

Airport:

Trip Planner

Search our weather history database for the weather conditions in past years. The results will help you decide how hot, cold, wet, or windy it might be!

Date:

Astronomy

Feb. 14, 2013 Rise Set
Actual Time 7:54 AM EET 5:23 PM EET
Civil Twilight 7:14 AM EET 6:03 PM EET
Nautical Twilight 6:29 AM EET 6:47 PM EET
Astronomical Twilight 5:45 AM EET 7:31 PM EET
Moon 8:44 AM EET (2/14) 11:16 PM EET (2/14)
Length of Visible Light 10h 48m
Length of Day
9h 28m
Waxing Crescent, 19% of the Moon is Illuminated
Feb 14
Waxing Crescent
Feb 17
First Quarter
Feb 25
Full
Mar 4
Last Quarter
Mar 11
New

Hourly Weather History & Observations

Time (EET) Temp. Windchill Dew Point Humidity Pressure Visibility Wind Dir Wind Speed Gust Speed Precip Events Conditions
12:20 AM 33.8 °F 29.6 °F 33.8 °F 100% 30.45 in 6.2 mi ESE 4.6 mph - N/A   Overcast
12:50 AM 33.8 °F 29.6 °F 33.8 °F 100% 30.45 in 6.2 mi ESE 4.6 mph - N/A   Overcast
1:20 AM 33.8 °F 29.6 °F 33.8 °F 100% 30.45 in 6.2 mi SE 4.6 mph - N/A   Overcast
1:50 AM 33.8 °F 28.6 °F 33.8 °F 100% 30.45 in 6.2 mi SE 5.8 mph - N/A   Overcast
2:00 AM 34 °F - 34 °F 98% 30.46 in 6 mi ESE 4.5 mph - -   Mist
2:20 AM 33.8 °F 28.6 °F 33.8 °F 100% 30.45 in 6.2 mi ESE 5.8 mph - N/A   Overcast
2:50 AM 33.8 °F 28.6 °F 33.8 °F 100% 30.45 in 6.2 mi ESE 5.8 mph - N/A   Overcast
3:20 AM 33.8 °F 29.6 °F 33.8 °F 100% 30.45 in 6.2 mi ESE 4.6 mph - N/A   Overcast
3:50 AM 33.8 °F 30.8 °F 33.8 °F 100% 30.45 in 6.2 mi ESE 3.5 mph - N/A   Overcast
4:20 AM 33.8 °F 29.6 °F 33.8 °F 100% 30.45 in 6.2 mi ESE 4.6 mph - N/A   Overcast
4:50 AM 33.8 °F 29.6 °F 33.8 °F 100% 30.45 in 6.2 mi ESE 4.6 mph - N/A   Overcast
5:20 AM 33.8 °F 29.6 °F 33.8 °F 100% 30.45 in 6.2 mi ESE 4.6 mph - N/A   Overcast
5:50 AM 33.8 °F 29.6 °F 33.8 °F 100% 30.45 in 6.2 mi ESE 4.6 mph - N/A   Overcast
6:20 AM 33.8 °F 29.6 °F 33.8 °F 100% 30.45 in 6.2 mi SE 4.6 mph - N/A   Overcast
6:50 AM 33.8 °F 29.6 °F 32.0 °F 93% 30.45 in 6.2 mi ESE 4.6 mph - N/A   Overcast
7:20 AM 33.8 °F 29.6 °F 32.0 °F 93% 30.45 in 6.2 mi ESE 4.6 mph - N/A   Overcast
7:50 AM 33.8 °F 28.6 °F 32.0 °F 93% 30.45 in 5.0 mi ESE 5.8 mph - N/A   Overcast
8:00 AM 33 °F - 33 °F 97% 30.45 in 6 mi East 6.7 mph - -   Mist
8:20 AM 33.8 °F 28.6 °F 32.0 °F 93% 30.45 in 5.0 mi ESE 5.8 mph - N/A   Overcast
8:50 AM 33.8 °F 29.6 °F 32.0 °F 93% 30.45 in 5.6 mi ESE 4.6 mph - N/A   Overcast
9:20 AM 33.8 °F 29.6 °F 32.0 °F 93% 30.45 in 5.6 mi ESE 4.6 mph - N/A   Overcast
9:50 AM 33.8 °F 29.6 °F 32.0 °F 93% 30.42 in 5.6 mi ESE 4.6 mph - N/A   Overcast
10:20 AM 33.8 °F 28.6 °F 32.0 °F 93% 30.42 in 6.2 mi ESE 5.8 mph - N/A   Overcast
10:50 AM 33.8 °F 28.6 °F 32.0 °F 93% 30.42 in 6.2 mi ESE 5.8 mph - N/A   Overcast
11:20 AM 33.8 °F 28.6 °F 32.0 °F 93% 30.42 in 6.2 mi ESE 5.8 mph - N/A   Overcast
11:50 AM 33.8 °F 29.6 °F 32.0 °F 93% 30.42 in 6.2 mi ESE 4.6 mph - N/A   Overcast
12:20 PM 33.8 °F 29.6 °F 32.0 °F 93% 30.42 in 6.2 mi ESE 4.6 mph - N/A   Overcast
12:50 PM 33.8 °F 28.6 °F 32.0 °F 93% 30.42 in 6.2 mi East 5.8 mph - N/A   Overcast
1:20 PM 33.8 °F 28.6 °F 32.0 °F 93% 30.42 in 6.2 mi ESE 5.8 mph - N/A   Overcast
1:50 PM 33.8 °F 29.6 °F 32.0 °F 93% 30.42 in 6.2 mi East 4.6 mph - N/A   Overcast
2:00 PM 34 °F - 32 °F 87% 30.43 in 6 mi East 4.5 mph - -  
2:20 PM 33.8 °F 29.6 °F 32.0 °F 93% 30.42 in 6.2 mi East 4.6 mph - N/A   Overcast
2:50 PM 33.8 °F 28.6 °F 32.0 °F 93% 30.39 in 6.2 mi ESE 5.8 mph - N/A Rain Light Rain
3:20 PM 33.8 °F 28.6 °F 32.0 °F 93% 30.39 in 6.2 mi East 5.8 mph - N/A   Overcast
3:50 PM 33.8 °F 29.6 °F 32.0 °F 93% 30.39 in 6.2 mi ESE 4.6 mph - N/A   Overcast
4:20 PM 33.8 °F 29.6 °F 30.2 °F 87% 30.39 in 6.2 mi East 4.6 mph - N/A   Overcast
4:50 PM 33.8 °F 28.6 °F 30.2 °F 87% 30.39 in 6.2 mi ESE 5.8 mph - N/A   Overcast
5:20 PM 33.8 °F 28.6 °F 30.2 °F 87% 30.39 in 6.2 mi East 5.8 mph - N/A   Overcast
5:50 PM 33.8 °F 29.6 °F 32.0 °F 93% 30.39 in 6.2 mi East 4.6 mph - N/A   Overcast
6:20 PM 33.8 °F 28.6 °F 30.2 °F 87% 30.39 in 6.2 mi ESE 5.8 mph - N/A Rain Light Rain
6:50 PM 33.8 °F 28.6 °F 30.2 °F 87% 30.39 in 6.2 mi ESE 5.8 mph - N/A   Overcast
7:20 PM 33.8 °F 28.6 °F 30.2 °F 87% 30.39 in 6.2 mi ESE 5.8 mph - N/A   Overcast
7:50 PM 32.0 °F 26.4 °F 30.2 °F 93% 30.39 in 6.2 mi ESE 5.8 mph - N/A   Overcast
8:00 PM 33 °F - 30 °F 85% 30.39 in 6 mi East 4.5 mph - -   Clear
8:20 PM 32.0 °F 26.4 °F 30.2 °F 93% 30.36 in 6.2 mi ESE 5.8 mph - N/A   Overcast
8:50 PM 32.0 °F 26.4 °F 30.2 °F 93% 30.36 in 6.2 mi ESE 5.8 mph - N/A   Overcast
9:20 PM 32.0 °F 26.4 °F 30.2 °F 93% 30.36 in 6.2 mi ESE 5.8 mph - N/A   Overcast
9:50 PM 32.0 °F 27.5 °F 30.2 °F 93% 30.36 in 6.2 mi ESE 4.6 mph - N/A   Overcast
10:20 PM 32.0 °F 27.5 °F 30.2 °F 93% 30.36 in 6.2 mi ESE 4.6 mph - N/A   Overcast
10:50 PM 32.0 °F - 30.2 °F 93% 30.36 in 6.2 mi Variable 2.3 mph - N/A   Overcast
11:20 PM 32.0 °F 28.7 °F 30.2 °F 93% 30.36 in 6.2 mi ESE 3.5 mph - N/A   Overcast
11:50 PM 32.0 °F 28.7 °F 30.2 °F 93% 30.36 in 6.2 mi ESE 3.5 mph - N/A   Mostly Cloudy